Time,TemperatureF,DewpointF,PressureIn,WindDirection,WindDirectionDegrees,WindSpeedMPH,WindSpeedGustMPH,Humidity,HourlyPrecipIn,Conditions,Clouds,dailyrainin,SoftwareType,DateUTC
2013-01-13 00:00:00,17.5,11.2,30.33,North,355,0.0,5.0,76,0.00,,CLR,0.00,VWS V14.01,2013-01-13 08:00:00,
2013-01-13 00:30:00,18.2,12.2,30.33,North,353,3.0,7.0,77,0.00,,CLR,0.00,VWS V14.01,2013-01-13 08:30:00,
2013-01-13 01:00:00,18.2,11.6,30.33,North,353,1.0,4.0,75,0.00,,CLR,0.00,VWS V14.01,2013-01-13 09:00:00,
2013-01-13 01:30:00,18.5,12.5,30.34,North,353,2.0,3.0,77,0.00,,CLR,0.00,VWS V14.01,2013-01-13 09:30:00,
2013-01-13 02:00:00,18.6,12.9,30.33,North,353,0.0,4.0,78,0.00,,CLR,0.00,VWS V14.01,2013-01-13 10:00:00,
2013-01-13 02:30:00,18.6,12.6,30.34,North,0,0.0,1.0,77,0.00,,CLR,0.00,VWS V14.01,2013-01-13 10:30:00,
2013-01-13 03:01:00,19.0,13.3,30.34,North,0,2.0,4.0,78,0.00,,CLR,0.00,VWS V14.01,2013-01-13 11:01:00,
2013-01-13 04:30:00,19.7,14.3,30.32,North,353,3.0,5.0,79,0.00,,CLR,0.00,VWS V14.01,2013-01-13 12:30:00,
2013-01-13 05:00:00,19.9,14.7,30.34,North,356,3.0,5.0,80,0.00,,CLR,0.00,VWS V14.01,2013-01-13 13:00:00,
2013-01-13 05:30:00,20.0,14.8,30.34,North,356,0.0,5.0,80,0.00,,CLR,0.00,VWS V14.01,2013-01-13 13:30:00,
2013-01-13 06:00:00,19.9,14.4,30.36,North,356,0.0,4.0,79,0.00,,CLR,0.00,VWS V14.01,2013-01-13 14:00:00,
2013-01-13 06:30:00,19.7,14.3,30.36,North,356,0.0,3.0,79,0.00,,CLR,0.00,VWS V14.01,2013-01-13 14:30:00,
2013-01-13 07:00:00,18.8,14.2,30.38,North,356,0.0,4.0,82,0.00,,CLR,0.00,VWS V14.01,2013-01-13 15:00:00,
2013-01-13 07:30:00,18.6,13.8,30.39,North,356,2.0,3.0,81,0.00,,CLR,0.00,VWS V14.01,2013-01-13 15:30:00,
2013-01-13 08:00:00,18.8,13.9,30.40,North,356,3.0,4.0,81,0.00,,CLR,0.00,VWS V14.01,2013-01-13 16:00:00,
2013-01-13 08:30:00,19.1,12.8,30.41,North,356,3.0,7.0,76,0.00,,CLR,0.00,VWS V14.01,2013-01-13 16:30:00,
2013-01-13 09:00:00,20.3,12.7,30.42,North,356,4.0,7.0,72,0.00,,CLR,0.00,VWS V14.01,2013-01-13 17:00:00,
2013-01-13 09:30:00,20.6,13.0,30.42,North,356,0.0,6.0,72,0.00,,CLR,0.00,VWS V14.01,2013-01-13 17:30:00,
2013-01-13 10:00:00,21.7,13.1,30.42,North,355,3.0,6.0,69,0.00,,CLR,0.00,VWS V14.01,2013-01-13 18:00:00,
2013-01-13 10:30:00,21.8,13.2,30.42,NNW,329,5.0,8.0,69,0.00,,CLR,0.00,VWS V14.01,2013-01-13 18:30:00,
2013-01-13 11:00:00,22.5,13.9,30.42,NNW,333,6.0,10.0,69,0.00,,CLR,0.00,VWS V14.01,2013-01-13 19:00:00,
2013-01-13 11:30:00,23.7,14.7,30.41,NNW,333,5.0,8.0,68,0.00,,CLR,0.00,VWS V14.01,2013-01-13 19:30:00,
2013-01-13 12:00:00,24.8,14.7,30.40,NNW,330,5.0,10.0,65,0.00,,CLR,0.00,VWS V14.01,2013-01-13 20:00:00,
2013-01-13 12:30:00,25.8,15.0,30.40,NW,316,6.0,9.0,63,0.00,,CLR,0.00,VWS V14.01,2013-01-13 20:30:00,
2013-01-13 13:00:00,27.5,14.7,30.39,NNW,345,4.0,9.0,58,0.00,,CLR,0.00,VWS V14.01,2013-01-13 21:00:00,
2013-01-13 13:30:00,27.6,12.7,30.40,North,0,3.0,10.0,53,0.00,,CLR,0.00,VWS V14.01,2013-01-13 21:30:00,
2013-01-13 14:00:00,27.8,12.9,30.39,NE,38,7.0,11.0,53,0.00,,CLR,0.00,VWS V14.01,2013-01-13 22:00:00,
2013-01-13 14:30:00,27.3,13.3,30.39,NE,56,4.0,8.0,55,0.00,,CLR,0.00,VWS V14.01,2013-01-13 22:30:00,
2013-01-13 15:00:00,27.9,13.4,30.39,NE,56,1.0,6.0,54,0.00,,CLR,0.00,VWS V14.01,2013-01-13 23:00:00,
2013-01-13 15:30:00,26.9,13.7,30.39,NE,56,2.0,6.0,57,0.00,,CLR,0.00,VWS V14.01,2013-01-13 23:30:00,
2013-01-13 16:00:00,25.7,13.0,30.39,NE,56,3.0,5.0,58,0.00,,CLR,0.00,VWS V14.01,2013-01-14 00:00:00,
2013-01-13 16:30:00,25.1,12.8,30.39,NE,56,3.0,5.0,59,0.00,,CLR,0.00,VWS V14.01,2013-01-14 00:30:00,
2013-01-13 17:00:00,24.3,12.4,30.39,NE,56,0.0,4.0,60,0.00,,CLR,0.00,VWS V14.01,2013-01-14 01:00:00,
2013-01-13 17:30:00,23.9,12.4,30.40,NE,56,1.0,3.0,61,0.00,,CLR,0.00,VWS V14.01,2013-01-14 01:30:00,
2013-01-13 18:00:00,23.8,12.7,30.39,NE,56,0.0,3.0,62,0.00,,CLR,0.00,VWS V14.01,2013-01-14 02:00:00,
2013-01-13 18:30:00,23.9,13.1,30.40,NE,56,0.0,0.0,63,0.00,,CLR,0.00,VWS V14.01,2013-01-14 02:30:00,
2013-01-13 19:00:00,23.7,13.3,30.39,NE,56,3.0,4.0,64,0.00,,CLR,0.00,VWS V14.01,2013-01-14 03:00:00,
2013-01-13 19:30:00,22.8,13.8,30.39,ENE,57,5.0,6.0,68,0.00,,CLR,0.00,VWS V14.01,2013-01-14 03:30:00,
2013-01-13 20:00:00,21.3,13.7,30.39,ENE,57,0.0,5.0,72,0.00,,CLR,0.00,VWS V14.01,2013-01-14 04:00:00,
2013-01-13 20:30:00,20.9,15.1,30.39,ENE,57,4.0,6.0,78,0.00,,CLR,0.00,VWS V14.01,2013-01-14 04:30:00,
2013-01-13 21:00:00,20.8,15.0,30.39,ENE,57,0.0,4.0,78,0.00,,CLR,0.00,VWS V14.01,2013-01-14 05:00:00,
2013-01-13 21:30:00,20.8,15.6,30.39,ENE,57,4.0,4.0,80,0.00,,CLR,0.00,VWS V14.01,2013-01-14 05:30:00,
2013-01-13 22:00:00,21.5,16.6,30.39,ENE,58,4.0,5.0,81,0.00,,CLR,0.00,VWS V14.01,2013-01-14 06:00:00,
2013-01-13 22:30:00,21.7,17.1,30.39,ENE,57,5.0,6.0,82,0.00,,CLR,0.00,VWS V14.01,2013-01-14 06:30:00,
2013-01-13 23:00:00,21.7,17.3,30.39,ENE,59,6.0,7.0,83,0.00,,CLR,0.00,VWS V14.01,2013-01-14 07:00:00,
2013-01-13 23:30:00,22.1,17.2,30.39,ENE,65,4.0,7.0,81,0.00,,CLR,0.00,VWS V14.01,2013-01-14 07:30:00,